Date,TemperatureHighF,TemperatureAvgF,TemperatureLowF,DewpointHighF,DewpointAvgF,DewpointLowF,HumidityHigh,HumidityAvg,HumidityLow,PressureMaxIn,PressureMinIn,WindSpeedMaxMPH,WindSpeedAvgMPH,GustSpeedMaxMPH,PrecipitationSumIn
2013-2-1,46.4,30.6,18.0,14.0,5.5,-4.0,49,35,25,29.77,29.32,0,-999,0,0.00
2013-2-2,62.1,40.4,23.5,26.6,18.4,10.4,70,44,24,29.59,29.29,6,-11,6,0.00
2013-2-3,61.3,49.2,31.1,30.2,19.8,14.0,74,33,16,29.62,29.12,9,3,9,0.00
2013-2-4,72.9,57.8,43.5,32.0,24.3,19.4,43,28,17,29.21,29.00,10,4,11,0.00
2013-2-5,73.6,49.0,29.5,37.4,24.4,15.8,73,41,17,29.35,29.09,5,1,6,0.00
2013-2-6,67.5,51.2,33.4,42.8,30.8,21.2,76,46,33,29.26,29.09,14,6,16,0.00
2013-2-7,66.2,53.2,42.1,50.0,42.4,30.2,84,66,50,29.32,29.03,9,5,11,0.00
2013-2-8,56.7,42.3,34.5,32.0,25.9,19.4,74,53,30,29.59,29.32,9,2,10,0.00
2013-2-9,44.6,41.5,34.5,41.0,30.9,23.0,89,66,50,29.32,28.94,14,7,17,0.00
2013-2-10,67.1,54.3,41.5,51.8,30.4,12.2,95,49,16,29.26,28.82,14,4,14,0.00
2013-2-11,57.7,42.8,31.6,23.0,17.4,10.4,50,36,24,29.53,29.23,6,2,7,0.00
2013-2-12,44.4,38.9,34.3,33.8,25.4,14.0,85,59,39,29.29,29.12,7,3,9,0.00
2013-2-13,60.1,43.6,35.1,35.6,28.6,19.4,88,59,27,29.26,29.12,5,2,7,0.00
2013-2-14,64.6,46.2,27.1,32.0,22.4,14.0,77,43,25,29.38,29.12,9,2,12,0.00
2013-2-15,47.7,38.0,25.9,23.0,11.3,1.4,52,34,17,29.62,29.38,9,4,13,0.00
2013-2-16,47.1,37.3,27.0,19.4,9.9,5.0,53,33,19,29.68,29.26,9,4,12,0.00
2013-2-17,70.0,50.7,27.3,28.4,19.6,10.4,68,32,15,29.29,28.97,14,6,17,0.00
2013-2-18,66.9,55.9,38.8,42.8,29.0,15.8,51,36,24,29.32,28.85,15,7,25,0.00
2013-2-19,57.2,41.0,23.7,23.0,14.6,8.6,63,36,22,29.62,29.32,6,2,8,0.00
2013-2-20,41.4,36.7,33.8,30.2,22.7,12.2,85,59,33,29.47,29.21,6,2,7,0.00
2013-2-21,36.9,34.4,28.6,33.8,29.4,12.2,92,81,53,29.21,28.88,10,3,11,0.00
2013-2-22,44.6,31.7,21.6,19.4,11.9,6.8,65,45,29,29.41,29.12,5,1,6,0.00
2013-2-23,51.8,34.4,20.5,19.4,12.7,6.8,59,43,27,29.32,29.12,9,1,9,0.00
2013-2-24,61.2,44.1,25.3,30.2,22.6,12.2,71,44,29,29.21,28.97,13,4,16,0.00
2013-2-25,46.6,40.4,34.3,37.4,31.1,24.8,90,71,43,29.03,28.67,12,5,13,0.00
2013-2-26,44.1,37.8,32.2,33.8,26.7,19.4,92,65,47,29.09,28.67,9,4,12,0.00
2013-2-27,53.6,39.5,30.0,28.4,21.2,15.8,71,49,28,29.32,29.06,9,3,13,0.00
2013-2-28,52.2,40.1,31.6,23.0,20.3,17.6,64,45,30,29.44,29.29,9,4,9,0.00